Theta_e
340 343 344 345 347 348 350 351 351 351 351 350 351 350 349 348 346 341 342 342 341 341 341 341 340 340 341 341 342 342 342 343 346 347 347 348 348 349 350 350 350 350 350 350 350 350 350 350 350 353 354 354 351 339 335 343 346 344 343 344 345 346 346 345 344 343 344 345 346 345 345 345 345 345 345 344 343 343 343 342 343 343 342 344 344
346 348 347 347 348 348 349 350 350 351 351 350 350 349 348 348 346 342 341 341 340 340 340 340 340 340 341 341 342 342 342 343 344 346 346 346 347 348 349 349 349 350 349 349 350 351 350 351 350 350 352 354 354 346 336 339 343 344 345 345 345 345 346 345 343 342 342 344 344 344 344 344 344 345 345 344 343 343 343 342 343 344 343 343 343
348 349 348 347 348 348 349 349 350 351 350 350 349 348 347 347 347 344 342 340 340 340 340 341 341 340 341 341 342 342 342 342 342 344 344 345 346 347 347 347 349 349 348 348 349 351 351 351 351 350 351 353 355 351 341 337 339 344 347 346 345 345 345 344 342 340 340 342 344 343 343 344 343 343 344 344 343 342 342 343 343 344 342 342 342
348 348 348 347 347 348 349 349 350 351 350 351 349 346 346 347 348 347 345 342 343 343 340 340 341 340 341 342 343 342 342 340 340 342 343 344 345 346 347 346 349 349 347 347 347 349 350 350 351 352 351 352 354 353 347 340 336 340 346 346 345 345 345 344 343 340 338 339 340 341 341 343 343 342 342 343 343 342 343 343 343 343 342 341 341
347 348 347 346 347 349 350 350 350 351 351 351 349 346 345 347 347 347 346 345 345 344 340 339 340 340 340 341 342 342 341 340 340 342 343 344 343 344 346 346 348 348 346 347 348 348 349 348 349 351 352 352 353 353 350 345 338 338 344 347 344 345 344 343 342 339 336 336 337 337 338 340 341 341 341 342 341 341 342 342 341 341 342 341 339
347 348 348 346 347 350 350 350 351 350 351 351 350 348 347 347 347 346 346 346 346 344 341 340 340 340 340 340 340 340 341 340 340 341 343 343 341 342 345 346 348 347 346 348 349 349 348 347 349 350 351 352 354 353 352 349 344 337 340 344 343 343 343 342 340 336 334 335 335 335 337 339 340 340 341 342 341 340 341 341 340 339 340 340 338
347 348 348 347 348 350 351 351 351 351 351 351 351 350 349 348 347 346 346 347 347 344 341 340 340 340 340 340 340 340 340 340 340 341 342 341 340 341 343 345 347 346 346 348 350 350 349 348 350 350 349 352 354 354 353 351 348 341 336 339 342 342 342 341 340 335 332 334 336 337 338 339 340 340 341 341 339 339 339 340 340 338 339 339 337
347 349 349 349 349 351 351 351 351 351 351 350 350 351 350 348 346 345 346 346 346 345 342 340 340 341 341 340 341 341 341 340 340 341 342 341 342 341 342 344 344 344 346 348 350 350 350 349 348 350 349 350 352 355 355 352 350 346 338 335 340 343 342 342 341 336 333 334 336 338 339 339 339 339 340 340 338 337 338 340 339 337 338 338 336
350 351 350 350 350 351 352 352 352 352 352 350 349 350 350 349 346 345 346 345 346 346 343 340 340 341 341 341 341 342 342 341 340 342 341 341 343 342 342 343 342 343 346 348 350 349 350 350 348 350 350 349 350 353 355 355 352 350 342 334 337 343 343 343 342 338 334 334 336 337 338 337 337 338 339 339 337 336 338 338 337 337 338 337 334
351 350 349 351 351 351 352 352 353 354 353 351 349 349 349 349 346 344 345 345 346 346 343 341 340 340 341 342 342 341 342 342 341 341 341 341 343 342 344 344 344 344 344 346 349 348 349 350 348 350 351 350 350 352 355 356 355 352 346 337 334 340 344 343 343 340 334 334 336 336 337 337 337 337 339 339 338 337 337 337 336 336 336 335 335
350 349 350 352 351 351 353 352 354 355 353 351 351 349 348 348 345 345 347 345 346 348 346 343 341 340 341 341 342 342 342 342 342 342 341 342 342 343 344 345 346 346 345 346 348 348 349 350 349 349 351 351 351 352 353 355 356 354 348 342 335 337 344 344 343 341 335 332 335 335 336 337 336 337 338 339 338 337 337 337 337 337 337 337 337
348 349 352 352 351 352 354 353 354 354 352 353 352 350 350 350 348 348 348 346 347 349 348 346 344 342 341 341 341 342 343 343 343 343 342 343 343 342 344 345 345 344 344 345 347 348 348 348 349 349 350 351 351 352 353 353 356 357 351 346 339 335 340 344 344 342 338 332 332 334 336 336 335 335 336 337 338 338 338 338 337 338 338 338 338
350 352 353 353 352 353 354 354 354 353 353 354 353 352 351 351 351 350 350 349 348 349 348 346 345 344 341 341 341 341 343 344 343 342 341 342 343 341 342 343 343 342 342 343 346 347 348 348 348 347 348 350 350 351 353 352 354 357 353 349 344 336 336 342 344 343 341 334 331 332 333 334 335 335 335 335 336 338 338 338 337 337 337 337 338
352 354 354 355 354 354 354 355 356 355 355 355 355 354 351 350 351 351 350 349 348 348 346 345 344 343 341 342 345 343 342 343 343 342 342 342 342 341 340 340 341 342 341 342 344 347 348 348 346 344 346 348 348 350 353 352 353 356 354 350 347 340 335 339 343 344 343 338 332 330 330 332 333 334 335 335 336 337 336 336 336 335 335 335 336
352 354 354 355 355 354 354 355 356 356 356 355 354 353 350 350 351 351 351 349 348 348 346 345 344 344 343 346 352 351 348 345 342 341 341 341 340 339 339 339 340 342 341 342 344 346 346 346 345 345 346 346 346 348 351 351 352 355 355 352 350 345 338 338 340 343 344 342 335 330 329 329 331 332 333 335 335 336 335 334 334 333 331 331 332
349 352 354 355 355 355 354 355 356 356 355 354 354 354 352 352 351 351 351 350 350 349 348 347 345 344 344 349 350 351 355 351 344 343 343 341 340 339 339 340 340 341 341 341 343 344 344 344 345 346 346 346 346 348 349 349 351 354 355 354 352 348 342 338 339 340 343 344 339 333 331 330 329 329 330 332 333 333 333 333 332 331 330 330 330
346 350 353 354 354 355 354 355 356 355 355 355 355 355 354 354 353 353 351 350 350 350 349 348 348 347 346 349 348 350 359 353 345 348 345 341 342 341 341 341 341 340 340 341 342 342 342 343 345 346 347 346 347 348 349 349 351 354 355 355 354 351 346 341 339 339 340 343 342 337 333 332 330 327 327 329 329 330 330 330 331 330 331 331 330
346 350 354 353 354 356 356 355 354 354 355 356 355 354 355 353 353 353 352 351 351 351 352 352 351 349 347 349 347 348 355 351 351 355 349 343 343 343 344 341 340 342 342 341 340 340 343 344 346 347 347 347 348 349 349 350 351 354 355 356 357 354 350 344 340 339 338 340 343 341 337 335 331 327 326 327 329 330 331 330 331 331 332 332 331
347 351 354 354 355 355 356 356 354 354 355 355 355 354 354 353 352 353 353 353 351 349 353 355 353 351 349 348 346 344 344 346 354 356 352 349 343 340 344 343 343 345 344 342 340 341 343 345 347 347 347 346 347 348 350 351 352 353 354 355 357 357 353 349 343 339 336 338 341 343 341 339 334 329 326 326 327 330 333 333 333 332 332 332 334
350 354 354 354 355 354 354 356 355 354 354 354 355 353 352 352 352 353 354 353 350 349 353 354 354 353 350 346 345 344 341 343 346 345 350 357 354 348 346 344 345 346 345 343 340 341 342 344 346 346 346 346 346 348 349 352 352 353 353 354 357 358 356 351 347 343 337 336 340 343 343 342 339 334 329 327 327 328 331 333 334 334 332 331 334
354 354 353 353 354 353 353 355 355 355 355 354 354 352 352 351 352 353 355 353 349 351 353 353 354 355 352 347 344 344 343 342 342 342 347 355 361 360 350 344 347 346 345 345 342 342 342 343 345 344 344 344 346 350 350 352 353 353 352 352 353 356 356 353 349 346 342 337 338 342 344 343 342 340 336 332 329 327 328 330 332 334 334 333 332
356 354 353 354 354 354 353 352 354 355 356 355 353 353 352 351 352 354 354 353 352 354 355 355 355 355 353 350 346 346 344 343 342 342 344 345 352 356 348 345 350 348 346 346 344 344 344 344 345 344 344 344 346 351 352 352 353 351 351 351 351 351 353 353 351 349 347 341 338 340 343 344 343 343 342 337 331 329 328 328 329 331 332 333 333
355 354 354 355 356 355 354 352 353 355 356 355 353 353 352 352 355 356 353 354 356 356 356 356 356 355 354 353 350 350 348 345 344 342 343 345 351 353 347 347 351 349 348 347 345 345 344 344 344 343 344 344 345 350 352 352 351 351 351 349 348 347 349 352 351 350 349 346 341 339 341 344 344 345 346 342 336 334 331 328 328 329 329 330 331
354 354 354 355 355 355 355 354 353 355 357 355 353 353 353 352 354 354 353 354 356 356 355 356 356 354 354 353 353 352 350 349 346 343 342 343 348 352 348 350 352 350 347 347 346 345 344 344 343 344 347 347 346 349 351 351 351 351 351 347 345 346 346 349 350 350 350 349 347 342 340 342 342 344 346 346 343 342 340 335 330 329 331 331 329
353 354 355 355 355 354 354 355 355 355 355 355 354 354 354 353 352 352 352 352 354 355 355 355 354 353 353 355 355 352 350 349 346 344 345 344 347 349 348 350 351 348 347 347 346 344 342 343 344 346 349 350 349 350 351 350 350 351 350 348 346 345 346 346 348 350 350 350 349 348 345 343 340 340 342 344 344 345 346 344 340 335 333 334 333
352 353 354 354 355 355 354 355 356 356 356 355 355 354 354 353 353 353 353 353 354 355 355 355 354 354 355 354 354 352 350 349 347 346 346 345 346 348 348 350 350 347 346 346 346 345 344 343 345 346 347 349 350 350 350 349 349 350 351 350 347 345 346 346 347 348 349 350 350 349 349 347 345 342 340 341 342 344 346 346 346 343 340 338 337
352 353 353 354 354 354 355 356 356 357 356 355 355 354 354 355 355 354 354 355 355 355 355 355 355 355 355 354 353 352 351 350 349 349 348 346 345 346 348 353 357 354 348 346 345 344 345 344 345 347 346 348 349 349 350 349 349 350 351 351 349 347 347 346 346 347 347 348 349 350 350 349 349 347 345 342 340 341 343 345 346 346 344 342 340
354 354 354 355 354 355 355 356 356 356 355 355 355 355 355 356 356 355 355 356 357 356 356 355 355 355 356 355 354 353 352 351 351 351 350 348 346 346 347 349 355 358 358 360 355 347 346 345 346 348 348 349 350 350 350 349 348 351 351 351 351 350 350 348 346 346 346 347 348 350 350 350 350 349 349 347 345 342 341 342 344 345 344 344 343
354 355 355 355 355 355 355 355 355 355 354 354 355 357 357 357 356 355 355 355 356 357 357 356 355 355 355 355 356 355 353 351 351 352 351 349 347 347 348 347 349 353 359 369 366 351 346 347 346 347 348 349 350 350 350 349 348 350 350 350 351 352 353 351 348 346 345 346 347 349 350 350 350 350 349 349 349 347 344 343 343 343 344 345 344
352 352 353 353 354 355 354 354 354 355 355 355 355 358 359 358 357 357 357 356 356 357 358 358 356 355 356 356 357 356 355 353 352 351 350 350 348 348 348 349 349 349 350 358 362 351 345 348 348 347 349 350 350 349 349 350 349 349 350 350 351 352 353 352 347 345 345 347 347 347 349 350 350 350 350 350 349 349 348 347 345 344 345 345 344
352 352 352 352 352 353 353 353 353 355 355 355 356 357 358 358 357 358 358 358 358 358 359 359 357 356 356 356 356 355 354 353 353 352 351 351 351 349 349 349 349 348 345 348 357 355 348 349 350 349 351 351 351 350 348 349 349 350 351 352 352 353 354 352 348 345 346 350 349 346 347 349 350 350 350 350 350 349 349 350 349 348 347 347 346
351 351 351 351 352 352 351 351 354 355 355 356 356 356 357 357 357 357 357 357 359 359 358 358 357 357 356 356 357 356 354 353 353 354 354 353 352 350 349 349 349 349 347 346 351 353 350 350 352 352 352 351 351 350 348 348 349 349 350 351 352 352 353 351 349 347 348 351 350 347 347 349 349 350 350 350 351 351 351 351 351 351 351 350 350
351 351 350 351 351 351 351 351 353 355 355 356 356 355 356 357 357 357 357 357 357 357 358 358 358 357 357 358 359 358 356 355 355 355 354 354 354 352 350 350 349 349 349 347 347 348 350 351 352 352 354 352 351 351 349 348 349 350 349 351 352 353 352 351 351 351 351 351 350 348 348 349 350 350 351 351 351 351 351 352 352 352 353 353 353
351 351 351 351 350 350 351 351 352 353 354 355 355 354 355 356 357 358 358 358 357 357 358 358 357 357 358 358 359 358 357 356 356 355 355 354 354 354 352 351 349 348 349 348 348 348 351 351 351 353 356 354 352 352 351 351 351 350 349 351 352 353 353 352 352 352 352 352 351 349 348 350 351 351 352 352 352 352 352 351 352 352 353 353 354
351 351 351 351 351 351 351 351 352 352 352 354 354 353 355 356 357 358 359 358 357 357 357 356 356 356 357 358 358 356 355 354 354 354 354 353 353 353 353 351 349 347 348 349 348 348 350 351 352 355 356 354 353 354 353 353 354 353 352 352 352 353 353 353 353 354 354 354 352 349 349 351 352 352 352 352 352 352 353 353 353 353 353 353 353
351 351 351 352 352 351 350 350 352 352 352 352 353 353 355 357 358 358 358 357 355 355 356 356 355 355 357 358 356 354 352 352 352 352 352 352 352 351 351 350 349 348 348 349 348 349 350 351 352 356 358 356 355 354 353 354 354 354 354 354 353 352 352 352 353 353 354 355 353 350 349 351 351 351 352 352 351 351 351 351 352 352 352 352 352
352 352 352 352 352 352 351 350 351 352 353 353 353 353 354 355 357 356 356 355 354 353 354 355 354 355 356 357 356 355 353 352 352 352 351 352 352 351 350 350 349 349 349 349 349 350 351 351 352 356 359 357 355 354 354 354 353 353 353 353 352 351 349 350 351 351 354 356 353 350 350 350 350 351 351 351 351 350 350 350 350 351 351 351 352
352 353 352 352 353 352 352 352 352 352 353 354 353 353 353 353 353 353 353 353 352 351 353 353 353 354 354 354 355 354 352 351 351 351 351 350 351 351 351 351 351 351 350 351 352 352 352 353 354 356 357 356 355 354 352 352 351 351 352 352 352 350 348 348 349 350 355 356 353 351 351 350 351 350 349 349 350 350 349 349 350 351 351 352 352
352 352 352 352 352 352 352 352 352 353 354 354 353 353 352 352 352 352 352 353 352 351 353 354 354 354 353 353 353 352 352 351 351 350 351 351 351 352 352 353 354 354 354 354 355 354 353 354 355 355 356 355 355 353 352 352 351 350 349 350 351 351 349 349 349 351 355 355 352 351 351 351 351 350 347 347 348 348 348 349 350 350 351 350 350
352 352 352 352 351 352 353 353 354 354 354 355 355 354 353 353 354 353 352 353 353 352 353 354 353 353 354 353 353 352 351 351 350 351 352 352 352 352 353 354 356 356 356 357 357 357 355 354 354 355 355 355 354 353 352 353 352 351 350 349 350 350 350 351 352 353 355 354 352 352 352 352 351 350 348 345 345 346 347 349 349 348 348 347 347
350 351 352 352 352 351 353 354 354 354 354 354 355 355 355 354 353 353 353 353 354 354 353 353 353 353 353 352 352 351 350 350 351 352 352 353 354 355 355 357 358 357 356 356 357 358 358 357 356 356 356 356 355 354 354 354 353 353 352 352 352 352 351 352 354 354 355 354 352 352 353 352 351 351 349 345 343 344 346 347 347 346 345 343 342
349 350 351 351 352 352 352 353 353 353 353 353 353 353 353 353 352 354 356 355 356 356 354 352 353 353 352 352 351 350 350 351 351 352 353 353 355 356 356 357 358 357 356 355 355 357 359 359 358 358 358 357 357 357 356 355 355 356 355 355 355 354 354 354 356 355 354 353 353 353 353 353 352 350 350 347 345 344 344 345 345 344 343 342 341
349 350 350 350 350 350 351 352 351 351 351 350 351 351 352 351 352 353 356 357 358 357 355 354 354 354 354 354 353 352 353 354 353 355 356 354 354 356 357 357 358 358 357 356 356 356 358 359 360 359 359 359 358 358 357 356 356 357 357 355 354 354 354 356 357 356 354 353 353 353 353 354 352 350 350 349 347 345 343 343 344 343 342 342 341
352 350 349 349 349 349 350 351 350 350 350 350 350 350 351 351 352 353 356 359 360 358 356 355 355 356 355 355 356 355 355 355 353 355 356 355 355 357 356 356 355 356 356 356 356 356 356 358 360 360 359 359 359 358 357 357 357 357 356 354 352 352 353 353 354 354 353 353 353 353 353 353 352 350 349 349 348 346 343 342 342 341 340 341 340
355 353 350 349 349 349 349 349 350 350 350 350 350 350 350 352 353 354 355 356 357 357 357 357 356 356 356 356 356 355 353 352 352 353 354 354 356 357 356 355 354 353 354 354 355 355 355 357 358 358 357 358 358 357 356 356 357 356 354 353 352 352 351 351 351 351 351 352 354 353 352 352 351 350 350 349 348 347 343 342 341 340 340 340 339
356 355 352 350 349 349 349 349 350 350 350 349 349 349 350 351 352 353 352 353 356 358 358 357 356 356 356 356 354 352 350 350 351 352 353 355 356 356 357 356 355 353 354 355 356 355 356 357 357 357 356 357 357 357 357 357 356 355 354 353 352 351 351 352 353 352 351 352 353 352 351 352 351 350 350 349 348 347 344 342 340 339 340 340 338
357 356 354 352 350 350 351 350 350 350 349 349 349 349 349 350 351 351 351 352 356 358 358 357 356 355 354 353 351 350 349 349 351 351 353 356 356 356 357 358 356 355 355 356 356 356 356 357 357 357 357 357 356 357 356 356 356 355 355 354 354 352 352 354 355 354 352 352 353 351 351 352 351 350 350 351 349 346 344 342 339 338 339 339 338
356 355 354 353 353 352 351 351 350 349 349 349 349 349 349 349 349 349 350 351 352 354 355 355 355 352 351 351 351 351 350 350 350 352 354 356 355 355 356 356 355 355 355 354 354 354 354 355 355 354 354 354 354 353 353 352 353 354 354 354 354 352 349 349 352 355 354 353 352 352 351 352 352 351 350 350 349 347 345 342 339 337 338 339 336
354 355 354 353 353 353 352 351 350 350 349 348 349 349 349 349 349 350 350 350 351 353 354 354 352 350 349 350 351 351 351 351 351 352 353 353 353 354 354 354 354 354 354 353 352 352 352 352 351 351 350 350 350 351 350 351 351 352 353 353 352 350 346 345 349 354 355 353 351 350 348 349 351 350 350 349 348 347 346 343 338 336 337 337 335
351 353 353 352 353 354 353 351 348 347 346 346 346 347 348 349 350 351 352 352 353 354 353 352 351 350 350 351 350 350 350 350 349 350 351 351 352 352 352 352 352 352 352 351 350 350 350 349 349 348 348 348 348 348 349 350 350 351 351 352 351 350 348 346 347 350 351 351 351 349 346 347 348 347 346 345 342 340 340 339 336 336 337 336 334
347 349 352 352 351 349 348 346 343 342 341 342 343 345 347 348 350 353 354 354 354 352 351 351 351 350 349 348 347 347 347 347 346 347 347 348 348 349 349 349 349 348 348 347 347 346 346 346 345 345 345 346 345 346 346 347 348 349 350 350 349 348 347 347 347 348 349 350 350 348 345 345 346 345 343 341 338 337 337 336 335 336 335 334 333
Wind_Speed
12 10 9 8 6 4 3 2 1 2 4 5 5 6 5 6 5 8 10 9 9 8 8 8 7 7 8 8 7 6 6 5 6 6 6 6 5 6 7 7 8 8 8 8 8 8 9 10 10 10 11 11 13 15 13 11 9 7 7 6 6 6 5 5 5 5 5 5 5 4 6 8 11 17 21 23 27 28 26 24 23 22 19 17 15
10 8 7 5 3 2 1 1 1 2 3 4 3 3 3 5 4 7 9 7 6 5 5 6 8 9 10 9 7 5 5 5 5 5 5 5 5 5 5 5 7 7 7 7 8 8 8 9 10 10 10 10 11 14 14 11 9 8 8 7 7 7 7 6 6 5 4 3 3 3 4 6 7 11 16 20 24 25 25 26 24 21 18 16 15
9 7 5 4 3 1 1 2 2 2 3 3 1 1 2 3 4 5 6 7 5 3 4 6 8 10 10 9 8 6 5 4 3 4 4 4 4 5 4 4 6 7 7 7 7 7 8 8 9 10 10 9 9 13 13 12 10 9 8 8 8 7 7 7 6 5 3 2 2 2 3 4 5 7 10 14 18 19 22 25 22 18 18 19 17
9 6 4 4 3 0 2 3 2 1 2 2 2 1 1 1 2 3 3 4 3 2 5 7 8 9 9 9 9 8 6 5 3 3 3 3 3 3 3 4 5 6 7 7 6 6 8 8 9 9 10 10 8 11 13 12 11 9 8 8 8 7 7 7 6 5 3 2 1 1 2 3 3 4 7 11 14 14 16 19 19 18 19 19 18
7 5 5 5 3 1 2 2 2 2 2 3 3 2 0 1 1 2 2 1 1 1 6 8 8 8 9 9 11 10 7 5 3 2 2 2 3 3 3 3 4 6 7 7 7 7 8 8 8 9 10 10 9 10 11 12 12 10 7 7 8 7 7 7 5 5 4 2 0 1 1 2 3 3 5 7 9 10 13 13 16 20 19 17 17
6 5 4 4 4 3 2 3 2 2 3 3 3 3 1 1 1 1 2 2 3 2 3 7 7 7 8 9 11 10 8 7 5 2 2 1 3 4 3 3 3 5 7 7 7 8 8 8 9 9 9 10 9 9 11 10 12 11 8 8 8 7 7 7 6 5 4 3 3 2 2 2 3 4 4 4 5 6 9 9 13 19 20 19 18
6 5 4 5 6 4 3 3 3 3 4 4 4 4 4 3 3 3 3 2 3 5 3 2 3 5 7 6 8 8 7 7 5 3 2 1 3 4 4 4 5 6 7 6 6 7 8 7 8 9 9 10 9 8 10 10 10 11 10 9 8 7 7 7 7 5 5 5 5 5 5 5 5 5 6 6 6 6 8 10 13 17 18 18 16
7 6 6 6 6 4 4 4 4 4 4 5 5 5 5 3 2 3 3 3 3 5 4 3 5 9 9 8 7 6 5 5 4 2 1 1 3 4 5 5 6 7 6 6 6 6 8 8 8 8 8 10 10 8 9 9 10 10 10 9 8 7 7 6 7 6 6 6 6 7 7 7 7 7 7 7 6 7 9 10 12 14 16 17 16
7 8 8 6 5 5 5 5 4 4 5 6 7 6 6 4 3 3 3 3 4 4 4 4 5 6 6 7 5 3 3 3 2 2 2 2 2 4 5 6 6 6 5 5 5 5 7 8 8 7 8 10 10 9 8 8 9 9 9 9 8 7 7 6 7 6 6 7 7 8 8 8 8 8 9 8 7 8 10 11 11 14 15 16 17
8 10 9 6 5 5 6 6 5 5 6 7 7 7 6 6 6 5 4 3 3 4 3 3 4 5 5 5 3 1 1 2 3 4 3 3 3 3 4 5 5 5 4 5 5 5 6 7 7 7 8 9 10 10 8 8 8 8 8 8 8 6 7 6 7 7 6 7 8 9 9 9 9 9 10 9 8 9 10 11 12 14 15 16 16
11 12 9 6 6 6 6 6 6 5 6 5 5 4 5 5 5 5 4 4 2 2 2 1 1 3 4 4 2 2 3 3 4 5 4 4 3 2 2 3 5 5 4 4 5 6 6 6 6 7 7 8 10 10 9 9 8 7 6 7 8 6 7 6 7 8 7 7 7 9 9 10 10 10 10 10 10 10 11 11 13 14 14 14 13
12 11 8 6 7 7 6 6 6 6 6 5 3 2 3 4 4 4 4 3 2 2 3 3 4 4 4 5 4 4 5 6 7 7 6 7 6 3 2 2 4 5 5 4 5 6 6 5 5 6 7 7 9 10 10 10 8 6 5 5 7 6 6 6 7 8 8 7 7 9 10 10 10 10 11 11 11 11 12 12 12 12 11 11 10
13 10 7 6 7 8 7 7 7 7 5 4 3 2 3 4 4 4 4 3 3 3 3 4 5 5 4 5 5 5 7 8 8 7 7 8 8 6 4 4 4 5 5 4 5 6 5 5 5 6 7 7 8 9 9 10 9 6 4 4 5 5 6 6 6 7 8 8 7 8 10 11 11 11 11 11 11 11 11 11 11 10 10 10 10
13 10 7 7 7 8 8 7 7 6 6 5 4 3 3 5 5 4 5 5 5 4 3 3 4 3 2 2 4 5 7 8 8 7 7 8 9 8 7 7 6 4 3 3 5 4 4 6 6 6 7 7 7 6 7 10 9 6 4 3 4 4 5 6 6 7 7 7 8 8 9 10 11 11 10 10 11 10 10 10 10 9 9 9 9
13 10 8 8 8 8 8 7 5 5 7 6 5 5 4 5 5 4 5 6 7 5 4 4 4 2 0 2 3 3 4 6 7 8 8 8 7 6 6 6 5 5 4 4 4 3 4 6 6 6 7 7 6 4 5 8 8 5 3 2 3 3 4 5 6 6 7 7 8 9 9 9 10 10 11 10 10 9 9 9 9 8 8 9 9
14 12 10 9 8 9 8 7 5 5 7 6 6 5 5 5 5 4 5 5 5 3 3 4 5 3 1 1 0 2 2 4 5 6 6 6 6 5 5 5 4 6 6 5 4 4 5 6 5 5 8 8 6 3 4 7 8 5 3 2 2 2 3 4 5 6 6 6 7 9 9 9 9 9 10 11 10 9 9 8 8 8 8 9 9
14 13 12 11 9 9 9 8 7 6 6 6 5 5 5 5 4 5 5 5 4 3 2 1 3 4 3 2 0 1 3 2 4 4 4 4 4 5 5 6 6 6 7 7 6 6 6 4 3 4 6 7 6 4 4 6 7 6 4 3 1 1 2 3 4 5 6 6 6 8 9 9 9 9 10 10 10 10 9 9 9 8 8 9 9
15 14 13 11 10 10 10 9 9 8 6 6 6 5 5 5 5 5 5 4 4 4 3 2 2 3 5 6 4 3 3 1 1 2 4 4 3 5 5 5 6 7 8 7 7 6 4 3 3 4 4 5 5 5 5 5 7 7 6 5 2 1 1 2 4 4 5 7 7 7 8 9 9 9 10 10 10 10 10 9 9 9 9 9 9
16 15 13 12 11 11 11 10 10 9 8 7 7 6 6 6 6 6 6 5 5 6 4 3 3 2 4 6 5 4 3 1 2 1 4 3 4 7 6 4 5 7 7 5 5 5 4 3 3 3 2 4 5 5 5 5 5 7 8 7 4 2 2 2 3 4 4 6 8 8 7 7 8 9 10 11 11 11 10 10 10 9 10 10 10
16 15 14 13 13 13 12 11 10 10 9 9 8 8 7 7 7 7 7 7 5 6 5 3 2 2 2 5 5 3 3 2 2 2 1 1 6 5 5 7 6 5 7 5 5 5 5 4 4 3 3 4 6 6 4 2 4 7 9 9 6 4 3 3 3 4 3 5 8 9 8 7 7 7 9 10 12 12 11 11 11 10 11 11 11
16 15 15 14 15 15 13 13 11 10 10 10 9 8 8 8 8 9 8 7 6 6 5 3 3 2 3 6 6 4 3 3 3 2 2 2 3 3 5 8 5 5 7 5 6 6 6 6 6 6 5 5 5 4 3 2 3 5 8 9 6 4 3 4 4 4 3 4 7 9 9 8 7 7 7 8 11 11 11 12 12 11 11 12 12
17 16 16 15 16 15 14 14 13 11 10 10 10 9 9 10 10 10 9 7 7 7 5 3 3 3 4 5 6 4 3 3 5 5 3 3 3 4 5 5 5 7 8 7 8 7 6 6 6 6 5 5 5 3 2 2 2 2 6 9 7 4 3 4 5 5 4 4 5 7 9 10 9 8 6 7 9 10 10 12 12 12 12 12 13
18 18 17 16 15 15 14 14 14 12 10 10 10 9 10 10 10 10 9 8 7 8 7 5 5 5 5 5 6 5 4 5 6 7 6 4 3 4 5 5 6 6 6 9 9 6 5 6 5 5 5 5 6 5 4 3 2 2 5 8 7 4 2 4 5 5 5 4 5 7 8 10 10 9 8 7 8 9 9 11 13 13 13 13 14
19 19 19 17 16 15 14 14 14 13 12 11 10 9 9 11 11 10 9 8 8 9 9 8 7 7 6 5 6 6 6 7 7 7 7 6 4 4 5 4 5 5 7 9 8 6 4 2 3 2 3 4 5 6 5 4 3 2 3 5 6 4 1 2 4 6 6 6 5 6 8 9 10 10 10 9 8 9 9 10 11 13 14 15 15
21 20 19 18 17 16 15 14 14 13 12 12 12 10 10 10 10 10 10 10 10 10 10 10 9 8 7 7 8 9 8 7 7 6 6 6 5 4 3 3 3 5 7 8 9 7 4 4 5 2 2 3 3 5 5 4 3 2 2 3 4 3 2 1 2 5 6 7 7 7 7 8 9 10 11 11 10 11 10 10 10 12 13 14 15
22 21 19 18 18 17 16 15 14 14 13 14 14 12 11 10 10 10 10 11 11 11 11 11 10 9 9 9 10 11 10 8 8 8 7 7 5 3 3 4 4 5 5 6 8 7 3 4 5 3 3 2 3 3 4 4 3 3 3 3 2 2 3 2 1 3 5 7 8 8 8 8 8 8 9 11 11 12 12 12 11 11 12 14 15
22 21 19 18 18 17 16 15 15 15 15 15 14 13 12 11 11 11 11 10 10 10 10 11 11 11 10 10 10 11 11 10 10 10 9 9 8 5 2 3 3 4 4 5 6 5 4 5 4 2 3 2 3 4 4 4 4 4 4 3 2 2 3 3 2 2 4 6 8 10 10 10 10 9 9 9 10 12 12 13 13 12 12 13 15
21 20 19 18 19 18 17 17 17 17 16 15 15 14 13 13 13 12 12 11 11 11 10 10 11 10 10 11 12 13 12 11 10 10 10 10 9 8 5 3 2 3 4 4 4 3 5 5 3 2 2 1 2 3 4 5 6 6 6 4 3 3 4 5 4 3 4 5 7 9 11 12 12 11 10 10 10 11 12 13 13 13 13 13 13
20 21 19 18 19 19 19 19 19 18 17 16 15 15 14 14 13 13 13 12 12 12 11 11 11 10 11 12 12 13 12 12 11 9 9 10 10 10 9 7 5 3 2 2 3 3 3 6 4 2 4 2 1 3 4 6 7 7 7 5 4 4 6 6 5 4 3 5 6 8 10 12 13 13 12 12 12 12 12 12 13 13 14 14 14
20 20 20 20 20 20 20 20 20 19 17 16 16 15 15 14 14 13 13 12 12 13 12 12 12 11 12 12 12 12 13 13 11 9 9 10 11 10 10 8 7 6 5 2 3 4 4 6 6 5 6 4 2 3 4 6 8 8 7 6 5 6 7 6 6 5 4 5 6 7 9 11 12 13 14 14 14 14 14 14 14 14 14 15 15
20 20 20 21 22 21 19 18 19 20 18 16 15 15 16 15 15 15 14 12 12 13 13 13 13 13 13 13 13 13 13 13 12 10 10 10 10 10 10 8 7 8 7 4 1 4 5 6 8 7 7 5 3 4 4 5 8 8 7 7 7 7 7 6 5 6 6 6 7 8 8 9 10 12 13 14 15 15 15 15 16 16 16 16 16
21 21 20 21 22 23 20 17 18 20 19 16 15 16 16 15 15 16 15 14 14 14 15 15 15 15 14 13 13 13 13 13 12 11 11 11 10 10 10 10 8 9 9 7 5 7 10 10 10 9 6 5 5 5 4 3 7 8 8 9 10 9 8 7 6 7 7 6 7 8 8 8 9 10 11 13 14 15 16 16 16 16 17 17 17
22 22 22 21 20 22 23 21 19 20 20 19 17 17 17 17 16 16 15 15 15 15 15 16 17 16 15 14 14 12 11 12 12 12 13 12 11 11 11 12 12 11 11 10 7 8 11 11 9 8 6 5 5 5 2 3 4 6 9 10 11 10 10 9 8 8 7 6 7 7 7 7 7 8 9 10 12 13 14 15 16 17 18 18 18
20 20 21 21 19 20 22 24 22 21 21 21 19 18 19 19 19 18 17 16 16 16 16 16 15 15 15 15 15 13 11 12 12 13 14 13 13 13 13 14 14 12 12 12 10 7 10 12 9 8 8 7 6 4 3 5 5 6 8 9 11 11 11 12 11 11 9 7 7 7 6 6 5 6 7 8 10 11 13 14 15 17 19 20 20
21 21 20 21 20 17 19 23 25 24 22 21 21 21 22 22 21 21 20 18 17 16 17 17 15 15 17 16 15 13 11 9 8 8 9 10 12 13 14 15 15 14 13 14 12 9 11 12 10 9 8 7 7 6 7 9 8 7 8 10 11 12 12 14 15 14 12 10 9 8 6 6 6 6 6 7 8 9 10 11 12 14 16 17 19
22 23 22 23 22 20 20 22 24 25 25 25 24 23 23 23 24 24 23 23 20 16 16 18 17 15 17 16 14 14 12 9 8 8 7 7 9 11 13 14 15 15 14 15 15 13 13 11 10 10 9 8 8 8 8 10 11 10 10 11 11 11 11 13 15 16 15 12 10 9 7 7 7 6 6 7 7 8 8 9 10 11 12 13 15
24 24 25 25 25 23 23 23 22 23 25 26 26 22 20 21 23 24 24 23 20 16 15 15 14 12 12 11 10 12 14 12 11 11 10 9 11 13 13 13 13 14 15 16 17 17 16 13 12 13 11 10 10 9 8 9 11 12 12 12 11 11 11 11 13 15 16 14 12 10 9 8 7 7 8 8 8 8 8 9 9 10 10 11 12
27 27 27 26 26 24 23 23 23 23 23 24 23 21 19 19 20 22 22 21 19 16 15 15 16 16 14 11 10 11 12 11 10 11 11 12 14 14 13 12 11 12 14 16 18 19 19 17 16 14 12 11 11 10 9 9 10 12 13 13 13 11 11 11 11 13 15 16 13 11 10 9 7 7 7 9 9 9 9 9 9 9 9 10 10
28 27 25 23 22 23 23 23 24 24 23 23 22 20 20 18 18 19 20 19 18 15 13 15 19 20 17 15 14 14 14 13 12 13 13 13 14 15 14 11 11 12 14 16 18 19 18 17 15 13 11 10 10 10 10 9 10 12 13 14 14 11 10 10 12 13 16 17 14 12 12 11 9 9 8 9 10 10 9 9 9 9 9 9 9
23 22 23 23 21 20 23 24 24 23 22 22 22 21 20 19 17 18 19 18 17 15 13 14 17 17 17 18 17 15 14 14 13 14 14 12 12 14 14 13 13 14 15 15 15 15 14 13 13 12 12 11 10 10 10 10 11 12 11 12 14 12 9 10 13 15 17 18 16 15 15 14 13 12 11 10 11 10 9 9 9 9 9 9 9
14 15 18 20 19 19 22 23 22 21 21 21 21 19 20 20 18 18 18 18 18 17 15 14 15 14 14 16 16 15 14 13 12 12 12 10 10 12 12 13 14 14 13 13 13 13 12 12 13 13 12 12 12 11 11 11 11 12 12 11 13 12 10 10 14 16 17 18 19 18 17 16 16 15 13 13 12 11 10 10 10 9 9 9 10
11 13 16 18 19 20 21 22 23 22 21 20 19 18 18 18 18 17 16 17 18 18 17 16 15 14 13 13 14 14 14 13 13 13 12 11 12 11 11 14 15 14 13 13 13 13 13 13 13 13 12 13 14 13 12 12 11 12 14 14 14 14 11 9 12 16 18 19 20 22 21 19 18 17 16 15 14 13 13 12 11 10 10 10 11
13 15 17 19 21 21 20 22 23 22 21 19 18 18 17 17 19 18 16 17 17 17 16 16 16 15 14 13 12 12 12 12 12 13 13 13 14 13 12 13 14 14 14 14 14 14 14 14 14 13 12 14 16 14 13 13 12 12 14 15 16 15 12 9 9 12 17 20 21 23 23 22 21 21 18 17 17 17 15 14 13 12 12 12 12
14 15 16 16 17 18 18 20 20 20 20 19 18 18 18 17 17 17 16 17 18 18 17 17 17 15 14 13 12 11 11 11 12 13 13 14 14 14 12 11 13 14 15 15 15 15 15 15 15 15 14 15 16 15 14 13 12 13 12 11 11 12 12 12 12 11 14 18 22 24 24 24 23 23 22 20 20 20 18 17 15 14 13 13 12
12 12 14 15 16 17 18 18 18 18 19 19 19 19 18 17 17 17 17 18 19 18 18 18 17 16 14 13 12 12 12 12 12 13 13 14 14 12 10 9 10 11 12 13 13 14 15 15 15 16 16 15 16 17 15 13 14 15 14 13 11 11 13 15 15 14 14 16 22 24 24 24 24 25 24 23 23 23 21 19 17 16 14 14 12
10 10 12 14 16 17 17 18 18 19 19 19 20 20 19 19 19 19 19 18 18 18 18 17 16 15 13 12 12 12 12 12 12 11 12 13 13 11 9 8 8 8 8 9 10 10 12 13 15 16 15 14 16 17 15 14 15 15 15 16 17 16 16 17 17 17 15 15 20 22 20 21 23 24 25 24 24 25 24 22 19 17 16 15 13
9 9 11 13 15 17 18 19 20 20 20 20 19 19 19 19 19 19 19 19 19 18 17 16 15 13 12 11 11 11 10 10 11 10 11 12 12 10 9 8 8 8 8 9 9 9 9 10 11 12 12 13 15 16 16 15 15 16 16 18 20 19 18 18 19 19 17 17 20 21 19 20 21 23 25 25 25 26 26 23 21 19 17 16 14
9 9 10 12 14 16 18 20 21 21 20 20 19 19 18 17 17 16 17 17 18 17 15 14 13 12 10 9 9 9 10 10 9 9 10 10 10 9 9 9 9 9 9 9 8 8 9 9 10 11 12 14 16 18 18 16 17 18 18 20 20 18 16 18 20 20 19 17 19 21 19 19 20 23 24 24 25 26 26 25 23 20 19 18 15
11 11 10 11 13 17 20 21 21 21 20 19 18 17 16 15 15 14 14 15 15 13 12 11 11 10 8 7 7 7 7 8 7 6 6 7 7 8 8 9 8 8 8 8 8 8 8 9 10 11 12 13 15 16 15 14 15 17 18 20 20 16 14 14 16 18 17 15 17 18 17 18 19 21 22 22 24 25 26 27 25 22 20 19 17
11 12 11 11 14 18 21 21 20 19 18 16 15 14 13 12 13 13 13 14 13 12 10 9 8 7 5 4 3 3 3 4 4 4 4 5 6 7 8 8 7 5 6 8 9 10 10 11 12 12 13 13 14 15 14 12 12 14 15 17 17 13 12 14 16 18 17 18 20 19 15 16 18 17 16 15 16 20 24 25 25 23 22 20 18
9 11 12 14 16 17 17 18 17 16 14 12 11 11 11 11 12 12 13 14 13 11 8 8 7 6 6 5 2 1 1 2 2 3 4 5 5 6 7 7 7 6 7 9 10 11 12 13 14 14 15 15 15 15 15 12 11 12 14 14 13 11 12 15 17 15 11 14 20 19 15 16 16 16 14 9 5 10 18 23 23 23 23 22 20
Wind_Direction
151 147 152 153 146 141 147 160 106 29 8 357 356 8 29 44 78 147 152 146 142 139 151 158 167 170 158 153 152 153 148 132 120 112 98 89 91 90 83 67 51 43 37 35 36 37 36 36 37 34 31 32 34 36 46 53 48 59 72 62 62 79 81 53 35 51 92 139 165 190 202 208 206 200 204 213 215 214 213 213 216 211 205 206 200
157 163 166 152 135 126 145 205 320 342 344 344 335 352 41 61 92 150 162 163 157 154 162 163 168 172 168 167 167 165 158 139 124 120 102 92 93 92 88 66 48 38 29 32 34 36 34 31 33 36 32 31 36 37 44 51 50 66 78 70 70 80 84 72 54 45 53 102 150 173 193 203 201 198 206 214 220 222 214 212 217 211 201 200 198
170 174 165 135 122 88 344 285 314 325 312 309 302 354 51 68 87 128 162 180 184 198 205 193 183 179 177 179 182 184 178 165 142 120 103 91 85 84 82 58 47 37 24 26 32 35 33 27 28 36 37 35 36 38 44 48 48 67 78 71 74 81 86 82 69 55 46 69 136 175 188 207 203 198 205 205 215 225 218 214 216 208 200 196 192
174 167 145 130 138 103 299 267 259 240 273 270 247 293 23 66 79 88 137 185 205 226 222 212 200 196 193 192 194 194 191 187 172 127 106 90 70 63 53 42 42 34 21 17 21 29 28 25 28 31 35 38 39 38 44 45 44 63 81 77 76 80 85 84 73 59 49 48 67 201 184 196 201 198 202 198 206 220 221 217 211 203 200 193 186
175 156 137 140 158 209 225 208 204 204 250 246 230 241 356 71 88 77 94 153 342 237 222 216 215 220 216 216 210 203 206 210 201 156 124 89 42 23 18 19 28 28 20 14 19 27 25 25 29 29 30 34 39 39 42 43 41 54 80 85 79 80 84 84 75 58 50 59 100 216 185 180 189 188 193 194 199 212 216 215 207 199 192 183 173
171 157 151 171 195 222 220 188 188 207 225 234 243 247 259 295 304 19 26 12 17 13 221 213 229 231 216 219 215 210 216 221 216 194 147 96 22 10 1 338 349 13 12 7 17 28 25 23 24 25 29 30 33 40 41 41 40 46 68 80 77 80 86 86 77 66 76 102 115 120 126 147 164 164 162 168 171 196 205 203 202 194 185 178 165
177 177 189 202 208 235 244 197 201 220 221 234 259 263 267 281 296 323 335 346 21 30 44 183 195 164 158 178 191 194 203 208 210 199 144 91 351 341 336 330 335 350 355 351 356 14 20 19 17 17 24 26 28 38 40 40 37 41 57 72 76 82 88 90 85 81 97 106 105 108 113 117 123 131 128 132 148 173 184 186 192 187 181 179 166
187 194 204 210 217 226 217 195 209 232 230 238 255 266 273 279 298 320 318 312 355 26 48 80 126 135 130 139 158 160 168 184 194 188 156 35 337 319 312 324 334 336 346 349 340 351 8 14 16 18 21 23 26 33 37 37 33 35 49 65 76 88 93 97 95 91 100 106 106 108 109 111 112 118 118 123 149 166 169 175 183 180 177 178 172
185 199 203 212 217 198 190 190 202 222 230 242 252 261 265 265 271 288 295 296 338 20 64 88 117 138 134 138 151 151 158 191 217 247 302 326 337 322 316 331 339 332 333 343 339 340 357 9 15 20 22 20 24 28 29 30 28 28 42 58 69 89 97 100 105 100 103 108 108 112 112 112 113 114 116 123 143 151 155 159 164 170 173 173 171
188 200 201 208 209 192 193 194 195 212 228 246 259 263 258 255 254 256 276 292 344 25 59 88 116 149 159 154 148 169 242 268 255 266 302 311 321 332 336 354 2 355 335 329 340 348 348 358 6 15 19 16 19 23 21 19 22 22 33 54 62 87 102 103 112 107 105 112 112 114 115 111 111 111 114 124 136 137 145 153 154 159 160 159 163
195 199 200 205 206 200 198 196 202 216 228 250 271 267 243 232 233 245 274 279 299 1 7 26 111 173 198 208 202 224 250 272 266 270 286 287 291 305 328 360 10 7 358 336 340 349 342 340 350 3 11 10 12 16 14 7 9 13 25 52 57 80 109 108 118 116 111 118 119 117 119 116 112 111 113 119 126 127 134 145 148 149 149 153 161
197 197 194 197 198 197 194 197 212 221 229 245 251 229 204 199 213 241 275 278 273 300 307 302 279 262 265 257 244 236 245 258 265 270 276 274 270 263 287 337 352 349 350 343 332 331 336 334 333 348 359 4 6 9 10 3 357 359 13 48 57 71 106 112 118 123 119 122 128 125 123 123 118 115 117 119 121 124 132 140 147 150 152 159 166
192 190 186 190 189 190 194 200 209 215 223 224 211 205 200 196 208 241 272 286 294 291 272 271 267 271 287 268 253 253 255 263 270 273 275 268 262 262 275 292 307 326 332 329 325 311 316 332 328 332 341 353 5 7 6 2 356 348 357 40 58 69 97 113 119 127 128 128 136 135 129 130 127 124 124 126 128 130 135 141 146 154 159 165 171
188 186 187 194 194 192 195 200 204 212 215 205 204 222 223 209 217 255 272 273 281 280 245 241 253 262 296 303 294 286 263 259 267 269 273 273 270 274 284 285 281 299 318 316 334 321 304 328 334 333 337 349 5 8 2 1 357 344 342 32 57 70 93 113 121 129 135 134 139 142 137 135 135 135 134 135 137 138 142 146 149 156 163 170 175
192 190 191 194 199 198 197 199 205 216 217 213 221 234 235 224 235 267 276 270 270 266 237 237 253 235 93 342 316 328 286 265 266 264 273 284 280 282 298 299 272 270 294 301 321 337 323 329 340 354 355 358 11 10 356 359 356 343 336 16 58 74 93 115 122 128 139 142 143 148 146 142 142 142 143 144 146 149 151 154 158 160 167 175 181
199 197 199 198 198 203 203 202 209 218 216 219 228 235 238 237 247 258 266 265 255 251 234 248 267 243 137 18 109 34 309 289 302 283 280 289 280 280 309 328 303 278 287 295 301 320 325 324 330 354 1 5 19 13 347 356 355 345 339 354 45 83 94 117 123 122 137 147 146 152 155 152 151 150 150 151 153 158 162 164 167 169 172 179 185
204 202 205 205 206 212 214 211 213 211 206 212 222 230 232 235 243 242 249 249 233 239 232 247 287 264 235 221 127 348 252 277 336 301 286 297 284 293 306 319 329 314 301 300 300 304 313 316 304 324 359 13 27 22 353 355 356 346 338 337 336 121 110 124 137 128 132 147 151 157 164 164 162 160 159 159 160 163 168 172 173 176 178 181 184
206 204 206 211 217 218 218 219 220 213 209 218 223 232 232 225 230 230 233 233 228 234 237 253 282 277 261 248 258 261 231 266 356 297 308 303 305 342 334 314 323 330 322 308 307 308 299 311 315 313 352 7 11 14 354 343 346 345 338 326 307 235 166 140 149 145 133 147 156 159 167 174 172 170 168 167 169 168 170 173 175 178 180 180 183
205 202 205 214 220 220 219 221 223 218 219 225 225 227 223 218 224 228 225 226 235 235 239 267 267 285 279 251 249 241 231 253 178 253 322 294 311 350 8 351 330 334 335 317 311 312 279 280 322 328 346 344 339 341 329 320 334 343 337 320 300 265 209 177 161 160 144 149 161 165 166 173 176 177 177 175 175 176 175 174 173 177 180 179 182
204 205 208 218 227 227 222 220 222 221 223 229 229 226 219 217 224 226 225 227 237 232 226 248 274 319 277 222 223 231 231 238 205 209 159 245 310 332 2 359 356 353 348 331 308 298 276 273 287 294 301 310 320 325 315 319 347 343 333 319 300 273 230 202 178 169 160 154 165 172 171 170 173 181 188 185 182 181 181 179 175 177 179 179 182
207 210 213 222 231 232 225 220 220 220 225 233 234 229 226 227 227 225 227 229 229 225 218 223 241 298 275 217 215 233 241 245 238 229 168 197 288 293 324 339 350 356 353 343 313 293 277 283 287 286 295 295 298 314 319 339 355 338 326 325 315 279 239 213 195 179 179 168 167 176 178 176 177 180 188 193 193 191 189 186 183 182 183 183 185
211 218 220 223 228 231 228 224 221 220 228 236 235 236 239 235 227 226 229 228 227 229 231 239 242 271 284 237 229 240 245 245 237 229 214 213 246 267 289 308 318 337 352 341 317 298 277 287 296 289 287 286 274 268 290 309 344 341 326 332 334 309 247 214 205 193 194 187 175 178 180 182 186 186 186 193 199 203 204 201 196 192 192 192 193
215 221 222 223 225 227 228 225 221 222 232 238 237 244 246 235 229 231 233 227 227 235 241 250 258 268 280 267 260 259 252 264 260 242 232 221 225 265 280 297 302 311 336 333 324 316 295 295 303 295 283 278 265 249 258 288 307 330 325 329 335 330 265 212 210 205 208 205 189 186 185 185 188 192 197 197 195 201 211 212 210 207 203 202 203
220 222 223 224 225 227 226 223 221 224 231 237 240 248 246 236 234 239 241 238 238 244 248 253 259 262 272 275 278 281 276 284 283 263 253 247 237 261 287 312 303 293 319 330 338 351 353 3 8 336 306 292 267 247 250 273 288 307 320 327 337 342 330 219 214 214 218 216 205 197 194 194 191 192 201 207 202 201 209 212 214 216 213 211 213
220 222 224 226 228 228 224 220 219 223 230 236 243 247 241 235 239 246 249 250 251 254 255 257 263 266 275 280 278 283 285 284 278 272 278 270 252 260 286 305 288 294 317 327 338 353 24 40 23 3 320 320 284 250 249 262 262 245 269 313 339 354 4 313 228 224 225 221 219 213 205 205 200 195 199 204 206 208 215 221 221 221 218 216 218
220 223 227 230 232 229 224 222 223 227 234 240 243 242 238 237 245 252 252 251 252 258 260 262 266 266 273 284 283 280 283 280 268 274 286 277 260 256 293 315 296 293 311 317 325 337 344 355 2 339 289 295 284 254 236 235 233 232 246 268 313 348 358 348 299 256 245 233 230 226 219 216 211 207 204 204 204 206 213 223 229 232 227 220 218
221 225 229 231 232 229 225 227 230 232 237 242 242 238 236 241 247 248 247 247 252 260 265 265 266 266 275 291 290 282 284 282 272 275 283 282 277 271 292 334 318 311 323 315 317 330 339 344 5 357 302 257 254 248 220 216 221 229 241 243 257 287 317 324 319 300 276 257 246 237 232 228 222 219 216 213 210 208 210 216 223 232 235 229 224
223 228 232 234 236 233 229 231 233 234 236 240 241 238 239 244 246 245 243 244 252 262 267 267 266 268 278 288 288 285 285 281 278 280 279 279 281 278 280 284 271 304 329 326 320 334 350 346 348 6 354 294 254 240 224 230 227 226 231 221 224 262 288 296 294 304 297 279 265 252 244 238 234 230 226 223 222 219 218 218 219 225 230 234 234
226 228 233 237 238 237 235 236 236 234 235 239 242 241 245 248 247 248 250 248 252 259 265 268 270 276 282 284 286 288 283 275 278 284 276 272 276 278 284 280 250 241 285 319 304 284 323 330 315 327 358 3 294 262 249 240 229 227 229 217 219 257 274 281 279 282 293 288 278 264 254 248 244 241 237 233 230 229 229 228 227 228 227 231 236
229 228 229 233 235 236 238 240 239 236 236 242 246 245 248 251 250 253 257 255 255 258 262 267 273 277 280 280 284 287 282 272 273 280 275 271 275 279 283 278 253 235 223 230 290 279 293 319 314 315 338 357 340 295 276 237 222 223 228 229 238 253 261 268 268 267 280 296 290 274 261 253 249 248 245 242 239 236 235 234 235 236 233 233 235
233 231 230 231 233 235 236 237 236 233 235 242 247 248 249 251 250 252 256 257 257 258 259 263 269 273 275 278 285 290 283 272 267 271 273 273 277 277 275 268 251 248 241 208 221 278 287 312 314 310 325 338 319 298 288 237 218 220 228 241 252 254 254 261 265 260 265 288 299 288 269 256 250 247 246 247 246 243 241 239 239 239 239 239 239
233 235 236 233 233 235 233 230 227 226 230 236 242 246 247 247 246 248 253 255 256 258 261 264 267 272 275 277 285 292 285 271 263 265 268 271 273 269 267 265 252 253 251 220 214 270 287 302 302 299 313 323 308 304 297 233 209 222 239 246 254 255 252 261 270 266 265 275 291 290 275 259 251 247 244 244 245 245 244 243 243 243 241 241 242
235 236 236 234 234 235 233 230 225 225 228 230 236 242 243 242 242 245 250 252 253 256 262 269 270 268 270 273 279 288 288 275 267 270 271 271 272 264 257 258 252 250 248 232 231 272 293 298 288 283 292 290 290 306 299 222 218 240 244 242 250 254 255 261 266 266 265 269 280 281 267 254 247 245 245 243 242 242 242 241 242 244 245 244 244
237 235 235 236 238 237 234 231 228 230 231 232 236 239 239 240 241 242 245 249 254 257 259 265 268 264 262 265 267 273 286 288 283 283 281 280 279 269 257 255 255 254 249 242 236 252 283 292 284 278 279 265 261 276 254 250 260 254 244 248 261 266 265 265 265 264 262 262 268 267 253 240 234 235 240 242 242 242 241 241 240 241 243 245 246
235 234 234 237 239 238 234 232 232 233 235 237 239 238 237 238 238 238 240 242 247 256 260 261 260 258 258 259 262 272 292 310 303 283 275 278 279 268 257 257 260 260 254 248 244 248 270 285 289 284 275 255 256 269 262 258 259 255 256 265 272 274 273 270 267 262 257 256 259 256 242 226 219 222 229 235 239 240 240 241 242 242 242 243 244
235 235 232 233 235 234 233 233 233 234 236 237 238 240 239 237 237 239 241 242 242 243 250 259 265 264 261 259 260 263 269 280 281 268 254 250 259 254 247 248 254 256 252 245 246 252 260 271 278 272 261 254 265 272 262 254 253 256 262 265 269 274 277 277 272 263 254 250 251 247 236 222 219 224 227 231 235 234 235 236 238 241 242 242 242
235 236 234 232 232 233 234 233 231 232 235 235 237 241 241 240 241 244 247 250 250 243 242 259 274 272 261 261 262 254 253 256 257 255 247 232 237 242 236 233 239 245 246 243 242 247 253 260 265 261 256 262 271 272 267 265 264 262 259 258 264 275 280 278 275 265 250 240 240 239 228 218 223 232 232 233 236 235 235 235 235 236 237 238 238
236 237 237 234 232 232 233 231 228 231 235 236 238 240 241 243 244 247 250 253 254 249 247 258 264 258 251 254 259 255 255 254 244 240 240 235 237 238 228 220 225 233 239 239 236 239 246 251 256 258 260 267 273 278 282 283 282 277 270 265 265 271 278 274 269 260 242 232 233 233 224 219 226 237 238 234 232 234 235 234 233 233 233 235 236
236 236 234 232 233 235 232 229 229 232 236 239 241 242 246 250 248 247 250 253 252 248 246 253 255 253 251 251 254 257 256 256 255 248 242 238 238 236 227 221 224 226 228 229 227 231 239 247 254 261 266 271 276 283 288 289 285 283 281 278 274 273 277 268 256 245 230 224 224 223 219 218 223 231 237 233 228 227 229 230 230 231 232 236 240
229 233 231 228 228 231 231 230 229 231 235 238 240 241 245 247 247 248 248 249 250 241 234 247 254 253 254 255 259 263 260 257 258 252 243 239 237 233 226 223 227 229 228 227 227 233 243 253 261 266 268 272 276 283 289 291 287 284 286 286 281 276 273 259 247 236 225 221 219 219 219 219 223 227 229 229 226 223 224 226 228 232 235 239 245
222 226 225 222 221 223 225 227 227 230 234 237 239 242 243 242 242 244 243 244 247 242 235 245 253 251 253 256 256 259 262 260 252 249 250 244 235 233 229 222 225 232 236 236 238 243 248 255 263 267 270 272 274 279 288 293 295 295 298 296 286 279 272 257 244 235 228 225 222 223 224 226 229 230 228 228 226 223 226 228 229 235 240 243 247
223 220 218 216 220 224 226 227 230 234 236 237 241 243 244 243 239 236 237 241 244 242 237 237 241 245 249 252 251 253 258 257 245 245 254 252 242 243 241 232 231 237 240 240 243 244 246 251 258 264 266 267 272 278 283 292 300 300 300 298 290 283 271 254 244 235 230 227 226 227 229 229 230 231 230 231 230 228 229 228 228 234 241 245 250
213 216 217 216 220 225 227 229 232 234 235 237 239 238 239 242 238 233 236 240 238 236 233 230 234 243 248 248 246 244 247 250 247 244 247 250 247 243 241 243 247 250 250 249 249 247 245 247 251 255 257 263 273 277 280 290 298 297 298 299 295 286 264 236 232 233 231 228 228 229 229 230 231 233 233 232 232 232 232 229 227 231 237 244 250
206 210 214 216 219 222 222 225 229 231 234 235 233 231 234 236 233 231 231 232 232 233 232 232 235 241 243 243 240 239 245 252 254 249 242 240 239 236 237 247 255 257 259 260 258 255 252 249 249 253 255 261 270 276 283 291 291 287 289 291 293 290 270 244 232 238 241 232 226 228 230 231 231 234 237 236 232 232 231 228 226 229 236 242 246
222 221 220 218 219 219 219 223 227 229 230 230 227 226 229 229 227 225 226 227 231 234 232 233 237 238 239 240 242 250 256 253 250 250 244 234 229 231 239 252 258 260 262 264 262 261 259 256 255 257 260 262 267 274 279 283 284 286 283 274 270 273 271 264 256 260 261 237 221 222 229 233 231 233 239 239 233 230 229 227 227 228 234 240 244
230 229 224 221 220 222 222 223 226 227 227 226 225 224 226 228 228 227 227 226 225 227 229 234 238 240 241 247 255 263 262 251 243 244 241 232 228 231 240 254 267 269 264 260 260 259 258 257 258 261 264 266 269 273 274 273 279 287 285 277 273 267 264 267 267 269 271 249 226 221 230 237 233 231 238 240 234 230 229 227 227 228 232 238 241
228 231 228 224 223 222 221 221 222 223 222 220 219 220 221 225 228 230 229 224 219 220 227 236 240 241 246 255 265 269 262 250 242 236 230 228 228 235 249 263 270 270 264 263 264 265 266 264 265 269 272 273 275 277 280 280 281 282 280 277 276 273 269 272 270 266 265 254 233 221 228 240 236 232 237 239 234 230 228 227 226 227 230 234 235
231 232 227 223 222 220 219 219 218 217 216 216 216 217 219 221 225 228 228 224 220 220 225 233 239 243 253 259 261 260 257 254 250 238 231 235 239 249 266 272 270 267 266 266 265 266 271 273 274 280 282 282 282 281 283 284 280 278 278 274 272 270 271 279 279 270 263 253 234 227 237 247 242 235 235 234 231 229 228 225 223 224 228 230 229
235 234 228 221 223 222 219 218 216 215 215 216 216 217 218 218 220 223 223 220 217 215 218 226 235 244 259 262 256 257 262 268 272 265 253 256 264 271 275 272 267 265 265 269 273 275 278 279 281 285 288 289 289 287 287 285 280 278 276 272 271 266 258 264 272 269 265 255 240 239 253 262 252 239 231 227 227 228 226 223 221 221 225 227 224
235 233 231 224 223 224 220 215 212 211 211 212 213 213 213 214 215 214 213 210 205 206 209 215 226 231 222 214 232 257 272 279 286 286 282 282 283 281 277 272 268 265 262 271 279 282 283 284 284 285 287 289 291 293 295 297 290 281 273 271 274 272 252 246 257 265 268 265 255 245 245 257 259 249 234 223 223 224 222 220 219 221 224 224 221
232 231 232 227 221 215 206 201 199 199 199 198 201 206 206 209 211 206 201 197 193 193 191 188 193 191 172 160 168 215 246 276 297 296 294 294 293 287 279 274 275 277 277 281 286 288 289 289 289 289 288 288 289 291 294 298 292 279 272 273 276 273 258 251 256 262 268 273 269 256 238 241 251 245 230 214 219 234 227 221 221 223 225 223 220